Wind_Speed
55 54 51 50 48 50 54 54 53 47 44 52 58 69 80 78 72 70 72 71 70 63 61 56 56 53 54 53 52 50 57 52 48 49 51 52 50 52 53 50 50 49 56 58 64 66 71
54 54 50 49 46 47 52 51 48 41 40 45 54 64 74 77 73 70 68 69 69 65 62 61 58 60 61 59 55 54 57 60 55 50 50 53 56 51 51 51 51 52 56 59 65 71 70
52 51 49 48 44 45 50 51 47 40 35 41 48 57 70 71 68 71 71 67 69 68 65 60 62 62 64 66 61 60 59 66 61 58 56 53 53 54 52 54 52 53 54 59 63 71 74
49 49 47 48 45 44 48 51 49 43 34 35 44 53 63 66 68 64 66 66 71 69 67 66 61 60 68 65 63 56 56 65 60 60 62 57 54 53 53 55 54 55 55 56 59 64 76
44 44 45 45 44 45 47 50 52 49 41 35 38 48 57 65 68 69 67 65 67 67 65 66 68 65 63 69 65 61 61 64 59 61 62 60 56 55 55 54 56 53 53 56 56 59 65
41 40 42 42 43 43 46 50 52 54 51 45 39 40 49 59 67 72 76 73 76 72 69 70 69 71 70 69 69 68 66 69 66 62 65 63 58 55 56 58 55 52 53 57 57 58 63
42 37 36 38 40 43 46 48 54 57 57 53 49 43 43 45 54 66 76 77 74 72 70 71 67 68 65 69 71 73 74 73 70 65 66 66 60 57 62 64 61 57 51 49 55 58 63
42 42 41 41 42 42 45 50 54 58 60 62 57 53 49 45 45 48 54 62 71 78 76 77 76 78 76 73 76 78 77 76 75 73 70 69 63 66 67 66 64 61 53 50 57 62 63
49 50 50 48 47 49 49 49 55 58 60 61 64 61 57 53 48 49 50 50 49 52 59 67 74 77 87 87 89 90 87 84 85 78 76 75 71 71 71 71 69 65 59 59 62 71 66
56 59 59 60 61 57 55 56 54 57 59 62 64 66 64 59 55 54 53 49 48 50 50 51 57 64 72 78 80 89 88 82 76 75 78 73 75 76 75 74 76 69 68 68 68 70 66
60 59 64 67 70 70 70 65 64 62 57 66 60 63 64 65 60 58 54 53 51 51 46 47 56 65 68 69 70 77 80 79 78 78 79 77 78 80 78 82 83 72 77 73 72 71 75
65 65 68 70 68 69 71 75 74 72 67 69 64 62 63 65 66 60 54 52 52 51 46 50 56 61 62 63 65 68 71 75 76 77 77 80 81 85 86 90 86 84 83 79 78 79 69
69 73 66 57 54 54 56 60 65 72 76 77 72 67 66 63 68 60 59 56 52 49 52 53 55 56 57 58 59 61 68 74 76 80 81 83 87 87 88 89 85 87 89 87 83 75 54
76 67 58 52 46 44 45 48 55 60 72 79 72 77 73 71 67 65 60 57 53 56 55 51 53 51 49 52 54 62 66 73 76 81 79 80 80 81 81 83 84 89 92 84 73 64 66
75 61 51 44 41 38 38 39 44 51 61 64 73 71 77 77 72 66 60 54 55 56 49 51 48 39 42 48 56 61 65 69 70 73 67 59 54 53 50 52 58 64 58 70 67 62 64
65 56 46 41 37 33 33 34 37 44 53 55 56 74 68 78 77 69 59 59 55 50 44 43 35 33 41 49 55 58 59 63 56 47 39 35 34 33 32 32 32 37 47 44 42 46 45
61 51 45 40 34 29 27 28 31 39 45 49 52 57 64 70 72 61 59 59 47 40 38 33 27 31 41 47 49 50 39 34 30 22 20 18 17 16 17 23 28 31 32 35 48 51 48
60 52 46 38 29 22 20 21 27 31 32 35 44 54 46 43 52 50 55 43 37 33 31 23 23 31 40 40 31 20 15 15 13 14 3 4 4 10 17 23 28 38 52 57 55 55 55
58 54 46 35 26 13 14 18 23 25 29 39 45 40 38 39 41 46 45 37 32 35 24 17 22 29 30 22 22 10 9 5 11 20 20 21 29 28 32 35 43 49 55 62 67 63 58
58 55 45 32 22 10 12 17 23 27 36 43 45 38 35 39 46 45 38 37 39 30 20 16 17 22 3 3 7 41 43 52 48 45 44 47 49 50 53 60 61 62 60 51 61 54 56
58 53 42 29 21 10 12 17 21 28 33 40 36 32 40 42 46 42 44 45 36 26 20 14 12 13 9 13 25 32 46 57 58 54 57 60 57 51 57 58 53 43 39 38 36 43 39
56 52 40 28 18 11 13 17 23 30 34 36 37 43 47 46 44 52 51 43 32 25 18 15 13 8 17 28 19 46 39 49 54 51 57 63 62 55 50 60 50 43 40 33 30 41 53
53 49 39 26 18 13 12 15 20 24 27 28 38 46 46 48 57 55 47 38 32 28 21 16 13 9 19 19 18 33 39 43 43 49 50 49 57 52 48 48 43 39 39 34 23 36 51
51 44 35 22 18 13 13 17 18 19 27 37 44 47 49 58 59 52 45 40 35 27 22 17 15 10 16 17 25 19 40 38 46 50 49 46 49 54 44 44 49 48 45 37 39 41 50
51 43 32 20 16 16 14 17 20 28 37 44 48 54 62 62 56 49 43 37 31 27 23 19 19 15 18 22 28 22 29 35 43 56 51 50 48 48 49 45 52 57 52 52 46 45 44
49 41 31 19 12 16 16 19 23 28 37 46 54 63 67 62 55 50 44 39 33 28 24 20 20 17 20 23 31 29 31 30 39 31 51 50 49 53 50 51 53 56 53 55 38 28 36
47 37 29 17 11 12 19 22 26 32 38 50 61 68 66 61 55 48 42 39 35 31 28 25 25 22 19 19 21 29 32 42 28 35 33 44 49 48 49 46 46 49 46 44 39 24 31
43 36 24 16 11 12 21 26 30 34 43 55 67 69 67 62 56 49 43 41 36 32 29 27 26 24 21 22 22 23 20 19 19 25 17 29 38 39 39 39 44 35 26 32 24 34 32
42 34 22 12 13 15 23 29 36 40 51 63 71 69 65 61 54 48 44 45 40 35 30 29 27 26 23 20 21 23 20 18 18 19 20 23 31 38 37 32 30 31 34 34 34 33 37
Wind_Direction
299 293 286 282 275 265 259 265 273 274 252 240 233 231 232 234 235 238 242 246 250 251 252 257 255 259 263 268 271 272 274 275 273 272 272 271 269 268 270 270 265 257 251 247 247 245 240
295 292 286 280 274 264 257 261 270 274 251 240 234 230 229 233 237 237 240 245 246 249 251 254 253 257 265 267 273 267 274 276 274 270 277 272 267 270 273 273 270 263 259 249 244 244 242
297 290 284 278 272 265 257 256 262 270 259 242 235 236 231 232 237 239 240 245 246 248 250 252 255 259 262 269 271 266 268 272 274 274 274 276 269 268 272 274 273 275 266 253 243 241 240
296 290 285 277 269 262 257 252 256 261 265 250 239 235 235 236 230 239 242 246 248 247 251 250 252 255 262 268 270 265 267 267 270 274 277 279 275 269 272 275 276 279 267 255 248 242 238
299 291 283 277 269 262 254 253 250 254 257 258 249 238 238 236 237 239 237 240 244 245 249 250 252 258 262 269 266 266 265 274 272 272 275 278 277 273 273 276 279 282 261 251 243 241 238
302 293 282 277 271 262 259 254 251 249 251 252 252 250 241 239 239 239 242 244 246 248 248 247 249 251 263 263 263 266 269 269 271 274 272 275 275 276 277 276 281 268 247 241 236 237 237
306 298 286 275 271 266 260 254 252 249 246 247 250 246 247 246 242 242 239 241 243 243 245 246 248 251 255 258 261 261 267 268 269 272 269 271 273 275 273 272 277 282 262 244 236 235 241
312 304 296 286 280 271 264 258 254 249 248 244 246 247 243 243 248 248 246 245 248 243 246 250 250 256 256 255 258 262 263 265 266 268 268 270 270 269 271 275 276 281 255 243 241 244 245
314 309 302 294 286 278 269 261 256 253 249 247 244 243 244 243 242 245 248 249 250 250 251 255 257 257 259 255 258 260 261 262 267 269 266 265 269 272 272 274 274 277 257 247 244 245 239
315 308 301 295 289 281 272 265 258 251 249 248 245 245 244 245 244 245 246 248 249 252 249 252 259 260 259 258 257 258 261 263 264 265 261 263 267 267 270 273 274 274 256 248 247 247 242
316 310 304 294 286 278 273 266 260 255 248 245 244 244 244 245 250 249 250 250 252 255 260 255 259 264 266 264 258 257 259 262 263 260 260 262 266 268 268 269 269 266 256 251 248 245 245
314 308 298 289 281 274 266 262 257 255 252 249 248 245 242 243 246 247 249 253 256 259 265 261 266 268 267 261 259 261 263 263 263 263 265 266 266 269 268 268 268 261 254 251 248 246 246
317 310 306 296 285 275 266 257 251 247 247 249 247 246 244 243 244 247 249 253 255 264 264 268 274 269 262 260 260 262 263 266 265 267 267 267 269 268 267 265 261 258 254 254 252 253 249
320 318 309 301 290 279 269 259 249 243 242 245 244 243 245 244 246 248 250 252 257 260 268 272 272 265 260 262 265 263 264 266 269 274 275 274 272 268 263 261 257 253 251 250 249 244 240
324 320 315 305 295 283 270 260 246 238 237 239 238 240 241 242 245 247 248 250 256 263 267 271 262 255 260 265 267 267 272 280 281 282 281 278 272 266 264 255 249 247 247 240 233 226 225
330 325 320 311 302 288 271 254 244 235 231 231 228 230 229 235 242 244 246 251 255 264 264 259 250 255 266 273 278 286 290 286 287 281 278 272 263 258 249 243 238 230 228 224 210 205 206
335 328 323 315 305 290 272 258 243 234 236 229 225 225 228 227 234 239 245 249 253 253 250 237 251 267 279 286 302 297 279 277 271 271 267 257 255 250 231 221 214 204 188 183 181 177 183
338 331 328 321 311 294 274 248 234 230 234 225 217 219 225 219 227 232 236 236 234 233 218 232 259 276 287 307 307 312 313 293 269 240 226 30 97 149 168 173 179 179 167 163 159 161 162
340 332 332 328 315 295 261 229 225 219 207 212 219 215 216 206 205 211 214 210 208 201 208 235 263 284 305 313 336 345 8 82 109 104 105 122 116 127 133 140 145 153 155 152 150 155 160
341 333 334 333 321 291 246 223 222 214 208 205 210 203 198 193 196 199 190 185 186 190 201 228 269 301 127 334 78 101 101 99 102 111 115 116 121 127 133 132 133 138 138 144 153 156 166
341 334 335 337 325 287 236 212 210 211 210 210 205 183 187 185 189 181 173 177 180 182 195 217 250 147 136 139 137 123 117 111 112 114 114 114 114 120 122 113 118 116 128 139 153 156 173
342 334 335 339 327 285 247 218 209 209 210 208 186 183 182 186 173 167 171 174 174 180 192 208 224 198 168 160 142 137 139 128 130 131 133 129 124 122 123 119 122 132 140 150 163 184 188
342 335 335 340 322 282 251 228 215 219 210 189 181 184 181 170 166 169 170 166 175 183 186 204 209 168 188 210 184 162 148 143 142 144 139 139 138 132 131 138 139 136 129 144 157 181 193
341 336 333 337 311 289 240 222 212 207 187 182 178 179 170 167 169 168 165 172 180 180 182 192 203 175 165 200 198 201 160 163 157 151 152 154 151 152 153 154 154 140 148 163 176 193 190
338 336 333 334 299 284 240 221 201 193 189 182 176 172 164 167 169 164 170 174 178 177 183 191 202 182 166 190 194 206 194 179 176 160 161 161 164 167 171 168 164 162 168 176 188 205 193
336 334 329 324 296 276 239 222 203 198 190 181 173 168 169 169 166 169 172 175 175 175 187 190 201 197 182 188 197 204 219 207 196 182 176 176 177 178 179 185 187 183 188 198 184 182 191
334 333 325 315 283 250 234 223 197 192 191 179 172 169 169 168 169 171 172 176 173 181 186 191 191 191 197 198 187 197 205 210 222 212 203 201 192 191 190 197 201 202 211 218 212 216 198
335 328 321 305 273 240 224 205 196 192 189 180 174 173 173 169 171 171 174 176 178 183 188 188 189 189 193 199 205 205 204 203 210 211 201 222 216 204 215 223 220 219 220 226 235 227 219
333 325 318 292 248 217 210 202 194 189 186 179 176 176 175 172 172 173 176 177 185 187 190 190 190 186 189 194 199 213 218 212 209 211 212 214 224 229 233 235 237 235 235 234 238 235 226
Height
10561 10556 10552 10548 10546 10545 10545 10545 10544 10542 10540 10542 10548 10558 10569 10577 10587 10595 10601 10608 10614 10619 10623 10627 10629 10630 10631 10633 10636 10637 10632 10633 10638 10641 10640 10640 10642 10644 10645 10648 10649 10657 10655 10659 10657 10662 10669
10545 10540 10535 10533 10531 10531 10531 10532 10532 10530 10529 10530 10537 10544 10554 10564 10574 10581 10587 10593 10598 10604 10610 10614 10616 10616 10617 10618 10625 10627 10621 10618 10623 10627 10629 10629 10627 10632 10634 10633 10634 10637 10640 10643 10645 10645 10652
10529 10523 10520 10517 10516 10516 10518 10520 10521 10521 10520 10520 10525 10533 10541 10550 10560 10568 10573 10578 10584 10590 10596 10600 10604 10602 10602 10606 10609 10611 10610 10605 10608 10610 10613 10615 10615 10618 10619 10617 10619 10621 10622 10622 10629 10628 10635
10513 10508 10504 10502 10501 10502 10503 10507 10511 10511 10511 10512 10514 10520 10528 10537 10545 10553 10559 10564 10570 10575 10581 10587 10590 10589 10586 10588 10594 10596 10597 10592 10596 10598 10596 10598 10599 10603 10603 10603 10605 10606 10606 10609 10610 10614 10617
10499 10494 10490 10487 10487 10487 10489 10493 10497 10500 10502 10503 10506 10508 10514 10522 10530 10537 10543 10547 10553 10560 10566 10572 10576 10576 10572 10572 10576 10581 10583 10580 10582 10583 10583 10583 10583 10585 10587 10589 10589 10590 10592 10595 10596 10596 10598
10486 10482 10478 10475 10474 10474 10476 10479 10483 10487 10490 10493 10495 10498 10501 10507 10514 10521 10527 10532 10538 10544 10551 10555 10560 10558 10558 10556 10557 10562 10566 10565 10568 10568 10567 10565 10569 10571 10571 10569 10573 10573 10575 10578 10582 10578 10581
10472 10470 10465 10463 10461 10461 10462 10465 10467 10469 10475 10481 10483 10486 10490 10494 10500 10505 10511 10515 10521 10528 10537 10538 10544 10543 10542 10542 10542 10543 10545 10547 10551 10553 10550 10549 10555 10556 10549 10549 10556 10562 10567 10570 10567 10566 10567
10462 10458 10455 10453 10450 10449 10450 10450 10451 10453 10458 10464 10469 10474 10478 10483 10489 10492 10495 10499 10505 10516 10520 10522 10525 10527 10525 10529 10526 10521 10527 10530 10532 10534 10535 10533 10538 10533 10533 10536 10542 10547 10553 10557 10552 10550 10556
10448 10445 10441 10438 10435 10434 10433 10434 10435 10437 10441 10446 10453 10459 10464 10471 10477 10479 10484 10488 10494 10500 10505 10507 10506 10509 10502 10511 10510 10501 10506 10511 10512 10517 10514 10515 10518 10514 10516 10518 10522 10530 10536 10534 10535 10528 10544
10437 10430 10426 10421 10416 10414 10414 10415 10418 10420 10423 10428 10435 10441 10449 10457 10464 10467 10471 10477 10484 10487 10493 10495 10489 10488 10484 10485 10494 10483 10485 10489 10495 10494 10493 10498 10495 10493 10496 10501 10500 10514 10509 10509 10512 10515 10530
10419 10412 10404 10396 10389 10386 10385 10390 10394 10398 10406 10409 10417 10424 10435 10440 10449 10453 10459 10464 10471 10473 10481 10484 10479 10470 10468 10469 10469 10466 10469 10470 10474 10473 10474 10475 10474 10471 10481 10476 10478 10494 10482 10490 10495 10503 10503
10395 10386 10374 10363 10357 10352 10353 10355 10363 10372 10384 10388 10399 10409 10418 10428 10429 10438 10446 10453 10457 10460 10466 10467 10463 10460 10455 10451 10452 10452 10452 10451 10452 10451 10451 10449 10451 10449 10450 10448 10456 10454 10458 10466 10472 10477 10496
10372 10355 10341 10332 10327 10324 10324 10327 10332 10343 10353 10360 10376 10391 10401 10409 10414 10426 10433 10439 10445 10450 10450 10453 10451 10447 10441 10438 10439 10441 10438 10432 10432 10428 10427 10426 10423 10423 10417 10419 10427 10426 10432 10438 10449 10465 10499
10345 10330 10318 10310 10305 10303 10303 10306 10310 10320 10328 10335 10359 10365 10383 10390 10401 10410 10420 10429 10437 10436 10436 10443 10439 10433 10429 10429 10430 10425 10423 10417 10413 10404 10399 10394 10393 10386 10386 10385 10388 10392 10400 10416 10431 10449 10462
10322 10310 10300 10292 10288 10286 10285 10288 10291 10301 10306 10318 10336 10344 10364 10372 10384 10394 10406 10419 10420 10424 10429 10430 10426 10425 10423 10422 10417 10412 10406 10400 10391 10380 10367 10364 10361 10356 10358 10358 10358 10367 10383 10391 10401 10419 10430
10308 10294 10285 10278 10273 10270 10270 10272 10278 10285 10290 10301 10318 10322 10337 10355 10364 10380 10396 10404 10409 10416 10420 10419 10417 10419 10417 10412 10404 10398 10389 10376 10365 10358 10352 10347 10343 10341 10341 10343 10348 10354 10359 10377 10398 10416 10434
10295 10281 10273 10265 10259 10256 10256 10260 10267 10273 10277 10288 10300 10312 10320 10335 10352 10370 10386 10389 10402 10409 10411 10411 10411 10413 10409 10404 10395 10379 10366 10358 10353 10348 10343 10338 10334 10334 10335 10337 10342 10348 10358 10379 10393 10405 10425
10283 10269 10261 10253 10248 10246 10247 10250 10255 10261 10270 10282 10291 10297 10310 10330 10347 10363 10370 10383 10394 10401 10403 10404 10408 10407 10401 10398 10386 10367 10356 10350 10347 10345 10340 10337 10332 10333 10335 10338 10343 10347 10350 10369 10389 10409 10424
10275 10260 10253 10244 10239 10239 10239 10242 10247 10256 10266 10271 10277 10294 10304 10321 10337 10345 10357 10374 10385 10393 10396 10402 10403 10401 10400 10394 10377 10365 10354 10351 10347 10345 10345 10344 10341 10341 10343 10349 10358 10364 10369 10379 10392 10410 10429
10268 10252 10247 10240 10234 10234 10235 10238 10242 10250 10255 10257 10267 10286 10302 10315 10322 10335 10354 10366 10379 10385 10393 10398 10398 10396 10393 10388 10381 10372 10362 10358 10356 10355 10353 10352 10353 10356 10354 10360 10373 10382 10390 10398 10409 10422 10439
10262 10248 10242 10238 10230 10232 10233 10238 10242 10247 10255 10262 10270 10286 10297 10307 10318 10334 10348 10362 10371 10380 10389 10393 10396 10398 10397 10389 10382 10377 10375 10369 10369 10371 10372 10374 10375 10380 10383 10380 10389 10400 10405 10413 10421 10433 10443
10259 10244 10239 10234 10232 10230 10233 10235 10241 10247 10253 10262 10275 10282 10290 10303 10320 10331 10343 10356 10367 10377 10384 10387 10393 10395 10396 10393 10388 10385 10379 10378 10378 10379 10379 10383 10386 10391 10397 10400 10407 10411 10418 10423 10430 10439 10439
10258 10242 10235 10233 10229 10228 10232 10235 10240 10245 10255 10264 10272 10279 10292 10305 10317 10330 10343 10355 10364 10372 10378 10382 10386 10389 10394 10395 10391 10390 10388 10387 10388 10389 10394 10396 10398 10400 10406 10408 10413 10420 10425 10432 10436 10442 10448
10255 10244 10236 10234 10229 10229 10233 10236 10241 10247 10255 10260 10268 10282 10294 10307 10317 10330 10342 10351 10359 10368 10374 10379 10382 10385 10390 10394 10394 10391 10390 10389 10392 10398 10400 10403 10405 10406 10408 10412 10417 10425 10431 10433 10436 10440 10451
10250 10241 10235 10232 10228 10228 10233 10236 10242 10247 10253 10259 10270 10282 10292 10305 10318 10331 10342 10351 10360 10367 10372 10377 10381 10384 10387 10393 10398 10397 10396 10396 10397 10400 10403 10407 10411 10413 10414 10420 10425 10428 10433 10434 10440 10447 10455
10247 10239 10231 10229 10231 10227 10230 10235 10241 10246 10254 10260 10270 10280 10292 10304 10318 10329 10339 10348 10356 10365 10370 10376 10380 10382 10385 10389 10394 10398 10400 10401 10402 10408 10406 10410 10414 10415 10419 10423 10427 10431 10434 10439 10445 10452 10459
10244 10237 10228 10226 10227 10229 10230 10233 10239 10244 10252 10261 10270 10281 10293 10303 10317 10330 10339 10347 10354 10362 10367 10373 10378 10382 10385 10387 10389 10393 10397 10402 10403 10408 10413 10413 10417 10421 10425 10427 10432 10437 10441 10446 10455 10462 10468
10242 10233 10229 10222 10221 10224 10230 10233 10237 10245 10253 10264 10272 10280 10290 10301 10314 10327 10337 10344 10352 10359 10365 10371 10376 10382 10385 10387 10390 10392 10395 10399 10403 10408 10412 10417 10421 10425 10430 10433 10438 10442 10448 10453 10460 10464 10469
10236 10228 10225 10222 10220 10224 10228 10230 10236 10243 10254 10262 10271 10280 10290 10302 10314 10326 10334 10342 10349 10357 10364 10369 10374 10379 10384 10388 10390 10392 10395 10398 10402 10407 10410 10413 10419 10424 10429 10436 10439 10444 10448 10452 10457 10461 10465